Wind_Speed
2 6 7 8 7 6 5 4 3 4 6 7 8 9 10 11 11 7 5 4 5 6 5 6 8 7 8 8 9 9 8 7 6 5 5 7 8 8 9 11 14 12 10 8 7 9 13
4 6 6 6 6 5 5 5 6 7 7 9 10 10 12 12 9 6 5 4 4 4 4 5 6 7 8 10 9 8 6 6 7 7 7 7 8 8 8 10 10 11 9 9 12 14 14
6 6 7 6 7 7 7 7 8 8 10 11 11 11 13 12 9 7 5 5 5 6 7 6 6 6 8 10 11 12 9 7 8 7 8 9 9 9 9 9 8 8 9 11 13 15 15
9 9 8 8 9 10 9 9 10 11 12 12 12 13 13 12 9 8 7 7 7 9 9 8 8 7 6 11 11 10 11 11 10 10 10 11 10 12 11 10 10 10 9 12 13 13 18
12 12 11 10 11 12 11 11 12 14 14 14 15 14 14 12 11 12 11 10 11 11 12 10 10 11 11 11 11 13 13 14 13 13 12 13 14 16 14 14 12 10 11 10 11 16 18
15 14 14 14 14 14 14 14 15 16 15 16 16 16 15 14 14 14 14 14 15 14 13 12 11 12 15 15 16 15 14 14 14 14 13 15 18 18 17 16 16 17 12 10 11 20 17
16 16 16 16 17 17 17 17 18 17 17 18 19 18 16 15 16 16 16 15 16 17 15 14 14 14 16 18 19 17 15 14 13 13 13 16 18 19 19 18 18 18 18 17 18 21 18
19 19 19 18 18 18 19 20 21 20 21 21 20 19 18 18 19 19 18 17 16 17 16 16 18 20 22 23 20 17 16 16 15 16 15 15 20 18 18 22 19 25 26 26 26 27 28
19 19 20 20 21 21 21 21 21 21 22 21 21 21 20 20 21 21 20 20 20 20 20 21 23 26 26 20 17 17 17 16 15 17 14 17 20 20 19 22 20 22 28 28 30 27 26
22 21 22 22 21 21 21 21 22 22 21 21 21 21 23 22 22 22 23 23 24 22 23 26 29 29 19 15 13 17 18 18 18 17 16 18 21 18 20 22 22 21 25 26 28 28 25
22 22 22 22 21 22 21 21 21 21 21 21 22 23 24 25 25 24 26 26 27 27 29 29 28 21 18 17 17 17 19 21 21 18 17 20 21 19 20 22 22 24 25 28 31 29 31
27 27 27 26 26 26 26 26 26 26 26 26 26 26 27 28 28 28 29 29 30 28 26 22 20 18 23 22 20 20 20 22 24 21 20 19 20 18 19 23 25 28 29 30 32 31 32
27 26 27 27 27 28 28 28 28 28 28 29 27 27 28 26 26 24 23 23 25 24 22 17 16 18 24 22 22 21 21 25 28 22 18 15 19 24 24 25 25 29 32 35 33 32 32
31 32 31 30 29 29 28 28 28 28 27 29 27 27 26 25 25 25 25 25 28 26 24 20 17 21 24 21 22 21 19 21 24 21 19 15 16 21 25 29 32 29 30 33 38 38 36
36 35 35 35 34 34 34 34 33 33 32 32 32 30 30 28 28 28 28 30 30 27 26 23 23 23 25 24 25 21 22 22 24 24 25 26 22 18 20 25 30 28 31 32 37 37 38
38 38 38 38 38 37 37 36 36 36 35 34 34 34 33 31 30 30 30 33 31 30 29 28 28 28 26 28 27 25 26 27 27 27 28 28 27 22 21 22 29 31 33 32 35 36 38
41 41 40 40 39 39 38 37 37 37 36 35 35 35 34 33 31 30 31 31 31 30 27 26 27 29 28 26 28 28 28 28 29 31 29 29 28 27 22 26 29 29 30 33 34 35 39
44 44 43 43 41 41 40 39 38 37 36 34 34 33 31 31 30 29 29 28 29 28 25 25 27 29 29 30 29 29 31 31 31 33 32 31 31 31 27 24 30 32 30 33 36 35 35
47 47 46 45 44 42 41 39 37 36 35 34 33 34 32 31 30 29 27 28 27 27 26 25 28 28 30 29 29 29 30 33 32 32 33 33 32 33 30 29 27 31 31 35 38 37 39
50 50 49 48 47 45 44 42 39 38 38 37 36 37 35 33 32 32 31 31 32 32 33 31 30 30 29 28 29 29 29 30 31 31 32 35 37 38 38 37 36 27 28 31 35 37 39
53 52 51 49 48 48 47 45 44 42 41 39 38 37 37 35 34 33 34 34 34 34 33 32 32 31 30 30 29 29 31 31 30 32 33 36 39 40 39 39 37 38 40 34 32 33 40
53 53 52 52 51 49 49 48 47 46 44 44 41 39 39 39 37 36 35 35 34 35 35 36 35 35 33 31 29 32 34 36 37 35 35 37 40 40 41 39 36 41 33 35 34 38 38
57 55 53 52 51 51 51 51 50 49 48 46 45 43 42 42 40 39 39 38 37 37 38 38 38 37 36 33 34 35 36 37 37 38 32 38 41 43 45 37 40 41 33 35 36 37 35
59 60 60 59 58 57 55 54 53 52 51 50 48 48 46 43 43 41 42 41 40 40 40 40 41 38 36 36 39 39 40 41 42 42 41 44 39 38 39 33 38 33 31 35 37 33 29
61 61 61 60 59 57 57 56 55 55 53 52 51 50 49 46 44 44 45 44 44 43 42 42 40 40 39 41 42 43 41 43 42 46 44 44 41 37 35 29 32 29 30 32 30 25 25
60 60 61 62 63 61 59 58 58 56 55 54 54 52 51 49 46 46 46 46 45 44 42 41 42 42 42 43 44 44 44 45 44 42 39 36 32 28 28 31 30 26 32 30 25 23 23
56 57 58 60 62 63 63 62 60 58 57 56 56 54 53 50 48 48 46 45 45 43 42 42 42 44 45 44 44 45 42 42 40 36 29 28 25 27 29 31 32 32 30 28 26 25 23
50 52 54 56 57 61 63 64 63 60 58 57 57 55 53 51 48 48 48 45 43 44 43 43 45 44 43 45 46 44 41 34 36 29 27 25 27 29 29 29 31 31 27 23 24 24 24
47 48 48 49 51 54 60 62 62 61 59 57 57 55 53 50 48 49 47 44 44 46 46 43 42 41 44 44 43 41 35 29 28 25 28 28 30 33 34 32 34 24 17 20 22 23 20
Wind_Direction
205 192 189 190 197 204 211 227 256 281 296 299 303 305 303 311 312 311 311 323 341 1 3 5 15 13 4 3 356 353 360 10 19 13 1 344 358 4 347 338 345 357 356 347 314 296 313
229 206 209 212 219 232 246 262 276 286 290 296 294 293 299 307 303 290 286 304 324 322 313 337 355 2 3 344 345 350 341 336 343 345 345 337 353 344 335 328 335 322 324 306 300 294 300
245 227 226 236 244 250 260 267 280 286 291 294 293 293 298 300 285 261 268 284 293 291 285 299 316 339 344 331 331 324 322 325 316 315 323 323 328 324 317 313 310 309 308 297 292 296 304
252 247 246 246 253 262 265 275 282 290 293 291 290 295 296 291 270 260 267 272 280 291 288 284 286 301 317 321 326 324 312 306 297 300 304 311 311 305 312 310 316 311 304 297 286 291 294
250 253 255 256 260 263 270 275 281 284 285 284 290 296 292 281 266 263 260 269 281 291 295 285 278 289 293 299 305 310 312 298 292 291 295 304 302 305 311 311 313 312 302 292 282 277 286
253 255 256 258 259 264 268 272 277 281 277 282 288 287 281 269 261 260 261 271 282 289 293 294 286 284 289 296 297 299 301 299 288 287 296 300 303 306 305 307 315 318 314 310 283 280 288
257 258 257 256 261 262 267 274 277 278 277 283 282 280 272 263 263 259 264 273 284 289 287 286 284 284 286 290 289 287 286 285 278 276 281 286 290 294 300 307 314 312 313 316 316 304 304
258 258 260 261 262 266 270 272 273 273 274 275 274 271 265 260 262 266 270 276 282 286 286 281 282 287 292 293 283 278 278 278 282 281 279 279 280 287 297 301 310 315 318 321 326 332 332
255 258 262 264 266 267 267 268 270 271 272 270 267 267 263 261 263 269 273 276 282 284 284 284 286 291 298 289 277 273 271 276 281 286 289 279 284 295 301 301 316 316 318 327 329 329 324
261 263 264 265 265 266 267 269 271 271 269 269 268 266 266 263 266 270 274 276 278 278 280 285 289 298 293 280 265 261 267 270 270 275 278 278 282 293 300 304 312 321 320 320 314 313 319
267 266 267 267 268 270 271 272 272 272 272 270 268 266 265 267 269 273 275 277 277 279 283 286 290 291 281 266 262 261 263 271 272 282 297 292 294 303 302 306 307 312 309 309 309 319 328
265 267 268 268 269 269 270 271 271 271 271 271 271 271 269 270 274 276 278 279 280 281 285 288 292 282 270 265 262 260 263 267 276 286 294 292 296 297 298 295 302 305 305 306 314 322 324
266 267 267 267 268 268 269 269 270 271 272 273 273 273 273 275 277 278 277 278 280 281 287 289 284 265 261 269 270 264 267 270 275 283 293 293 296 299 300 299 306 305 309 310 310 313 316
265 266 267 267 267 268 268 269 270 270 272 274 274 274 273 274 275 275 274 275 275 282 282 284 280 267 268 275 274 280 278 279 287 293 292 284 279 286 297 299 303 303 304 305 308 312 316
265 264 265 266 266 266 266 267 268 269 270 271 272 271 272 272 271 271 271 273 274 275 279 279 274 271 274 276 278 285 285 287 288 294 295 297 296 296 295 293 297 300 297 301 301 308 310
265 265 266 266 266 268 268 268 269 269 269 270 271 271 270 270 270 270 269 269 272 273 275 275 272 273 271 276 281 284 284 288 290 290 291 295 297 306 307 296 293 295 298 299 304 308 308
266 266 266 266 267 267 268 268 268 270 270 270 269 269 270 268 268 265 264 267 270 270 269 269 271 272 274 274 277 282 282 284 286 287 292 295 303 309 310 301 294 295 298 300 302 305 307
267 267 268 268 267 267 266 266 266 266 266 266 266 265 266 266 266 265 267 270 268 269 271 269 265 267 269 273 272 275 280 283 286 289 294 301 301 299 301 294 296 297 298 298 301 302 303
268 268 269 269 269 268 266 264 262 261 261 261 260 262 261 260 263 266 265 264 264 264 261 258 259 260 265 267 272 274 274 281 286 289 294 294 292 291 287 291 293 295 297 297 296 301 306
265 266 268 268 268 267 266 264 261 261 261 261 260 261 260 260 259 258 258 257 258 258 260 263 265 268 272 275 276 278 278 279 283 286 285 287 288 287 290 294 295 281 276 278 287 295 300
265 266 267 266 265 266 264 263 262 261 261 259 260 260 261 259 255 254 254 254 256 259 261 263 265 266 270 273 276 279 279 279 276 277 278 281 284 287 290 290 290 291 292 295 290 293 297
265 264 263 263 264 263 263 263 261 261 259 259 258 259 258 258 257 255 254 256 256 259 262 265 263 264 265 266 271 272 275 279 280 283 286 285 284 283 282 285 289 288 298 294 296 299 302
266 265 264 262 261 261 261 261 261 261 260 259 257 255 255 256 258 257 256 255 254 255 259 260 264 269 273 276 273 272 273 276 277 283 285 282 283 284 285 292 290 293 295 295 291 296 301
266 266 265 263 262 262 261 260 259 258 259 259 257 256 254 255 255 256 257 256 256 256 256 261 265 265 267 270 269 273 278 279 281 286 289 289 291 288 294 293 288 293 291 286 286 293 296
267 265 264 263 262 260 259 258 257 256 255 256 256 256 254 253 255 257 257 257 258 260 261 262 262 264 267 270 272 271 274 276 280 282 288 293 295 297 292 291 291 289 286 284 287 295 300
269 267 264 263 261 260 258 256 256 255 254 255 254 255 254 253 253 255 256 257 258 258 260 262 265 265 265 267 271 274 276 281 282 286 288 290 290 289 293 286 284 287 291 273 298 301 303
272 269 266 263 260 258 256 254 253 252 252 252 252 252 252 251 252 256 255 254 254 253 255 259 262 264 264 271 274 277 280 283 284 285 288 282 278 276 273 276 278 278 292 313 303 304 297
276 273 270 267 262 258 254 252 249 249 248 248 249 250 250 251 251 253 252 251 251 252 253 256 257 263 267 269 272 277 280 283 283 280 272 269 264 264 272 277 281 283 297 310 310 306 281
283 281 276 271 265 259 253 248 245 244 244 244 245 247 248 249 247 248 249 250 248 249 252 257 261 265 267 269 271 274 278 277 275 266 264 261 261 261 263 277 279 283 295 286 299 302 332
Height
5912 5913 5914 5915 5916 5918 5919 5919 5919 5919 5919 5918 5918 5917 5917 5915 5914 5913 5913 5912 5912 5912 5911 5910 5909 5907 5906 5905 5904 5903 5902 5902 5901 5900 5899 5897 5897 5896 5895 5893 5893 5893 5892 5891 5888 5887 5885
5912 5912 5914 5915 5915 5916 5917 5917 5918 5918 5917 5917 5916 5916 5915 5914 5913 5912 5912 5911 5911 5911 5911 5910 5909 5908 5906 5906 5904 5903 5902 5901 5901 5900 5899 5897 5896 5895 5895 5894 5893 5891 5891 5890 5887 5885 5885
5911 5911 5912 5913 5914 5914 5915 5916 5916 5916 5916 5915 5914 5913 5912 5912 5911 5911 5911 5910 5910 5910 5910 5909 5908 5908 5906 5905 5903 5902 5901 5900 5899 5899 5898 5897 5896 5895 5894 5892 5892 5891 5890 5887 5885 5883 5883
5908 5909 5910 5911 5911 5912 5913 5913 5913 5912 5912 5912 5911 5911 5910 5909 5909 5909 5909 5909 5909 5909 5908 5907 5906 5906 5906 5904 5902 5901 5900 5899 5898 5897 5896 5895 5894 5893 5892 5891 5890 5888 5888 5885 5882 5880 5877
5906 5906 5907 5908 5908 5909 5909 5909 5910 5909 5909 5908 5908 5907 5907 5906 5906 5907 5907 5907 5907 5907 5905 5904 5904 5904 5903 5903 5902 5900 5898 5896 5895 5894 5893 5892 5890 5890 5890 5888 5889 5887 5885 5883 5880 5878 5876
5902 5903 5904 5904 5905 5905 5906 5906 5906 5906 5906 5905 5904 5904 5904 5904 5904 5904 5904 5905 5904 5904 5903 5902 5901 5902 5900 5899 5898 5898 5896 5894 5892 5891 5891 5888 5886 5885 5886 5885 5884 5882 5882 5882 5881 5877 5877
5898 5899 5900 5901 5901 5901 5902 5902 5901 5901 5901 5901 5901 5901 5901 5901 5900 5901 5902 5902 5903 5902 5900 5899 5898 5898 5896 5896 5894 5894 5893 5892 5890 5889 5889 5887 5885 5883 5882 5882 5881 5879 5879 5878 5877 5873 5873
5894 5895 5896 5896 5897 5897 5897 5897 5897 5897 5897 5897 5896 5896 5897 5897 5897 5897 5898 5898 5897 5897 5896 5894 5894 5893 5892 5891 5889 5888 5888 5888 5887 5885 5885 5885 5880 5881 5880 5877 5877 5874 5871 5870 5869 5864 5861
5889 5890 5890 5891 5891 5891 5892 5892 5892 5891 5892 5892 5892 5891 5892 5893 5894 5894 5894 5894 5893 5892 5891 5890 5889 5887 5887 5886 5884 5883 5884 5883 5882 5880 5881 5879 5877 5877 5877 5873 5875 5870 5865 5863 5860 5860 5857
5884 5885 5885 5886 5886 5886 5887 5887 5887 5886 5887 5887 5887 5888 5887 5889 5891 5889 5889 5889 5887 5887 5886 5885 5883 5881 5880 5879 5880 5879 5879 5879 5878 5878 5878 5876 5873 5874 5871 5869 5867 5865 5860 5858 5857 5856 5854
5879 5880 5880 5881 5881 5881 5882 5882 5882 5882 5882 5882 5883 5883 5884 5883 5884 5884 5884 5882 5881 5881 5880 5881 5877 5877 5876 5875 5876 5876 5874 5872 5872 5873 5874 5871 5869 5868 5866 5864 5862 5859 5856 5853 5851 5849 5846
5873 5874 5874 5875 5876 5876 5876 5876 5877 5877 5877 5877 5878 5878 5878 5878 5878 5878 5877 5875 5874 5875 5873 5874 5873 5871 5869 5869 5870 5870 5870 5868 5865 5867 5868 5865 5863 5863 5862 5859 5856 5852 5850 5848 5845 5843 5842
5867 5867 5868 5868 5869 5870 5870 5870 5871 5871 5871 5871 5872 5872 5871 5872 5872 5871 5870 5869 5868 5867 5869 5870 5868 5866 5862 5863 5864 5865 5865 5862 5860 5863 5862 5860 5859 5856 5855 5853 5850 5846 5843 5840 5839 5839 5838
5859 5860 5861 5862 5862 5863 5864 5864 5864 5865 5866 5864 5865 5866 5865 5866 5866 5865 5864 5864 5861 5862 5862 5864 5864 5860 5860 5860 5859 5859 5860 5858 5855 5856 5857 5858 5858 5853 5851 5847 5844 5842 5840 5835 5830 5829 5829
5850 5851 5852 5853 5854 5855 5856 5856 5857 5857 5859 5858 5858 5858 5858 5859 5859 5859 5858 5856 5856 5857 5856 5857 5857 5856 5855 5855 5854 5854 5852 5852 5851 5850 5850 5849 5850 5850 5846 5842 5839 5838 5834 5831 5826 5824 5820
5840 5841 5842 5843 5844 5845 5846 5847 5847 5848 5850 5850 5849 5849 5849 5851 5851 5851 5851 5848 5849 5851 5850 5851 5850 5849 5849 5846 5847 5848 5846 5846 5846 5845 5844 5843 5842 5843 5841 5836 5832 5829 5828 5825 5820 5816 5811
5831 5832 5832 5833 5835 5836 5837 5838 5838 5839 5840 5841 5841 5840 5841 5841 5843 5843 5842 5842 5842 5843 5845 5845 5844 5842 5842 5842 5841 5840 5840 5839 5837 5836 5836 5836 5836 5836 5834 5828 5825 5822 5819 5816 5814 5810 5804
5819 5821 5822 5823 5824 5825 5827 5828 5829 5830 5831 5832 5832 5832 5833 5833 5835 5834 5835 5836 5836 5835 5837 5837 5836 5835 5835 5834 5835 5834 5832 5832 5831 5829 5828 5829 5827 5825 5825 5822 5817 5814 5813 5809 5804 5804 5801
5806 5808 5809 5811 5812 5814 5815 5817 5818 5820 5821 5822 5823 5823 5826 5826 5827 5828 5828 5828 5827 5827 5828 5829 5829 5829 5828 5828 5828 5827 5826 5825 5824 5824 5823 5820 5819 5817 5818 5815 5812 5808 5806 5801 5797 5795 5793
5793 5795 5796 5798 5800 5801 5803 5805 5807 5809 5811 5813 5814 5814 5816 5818 5819 5819 5819 5820 5819 5819 5819 5820 5821 5821 5822 5823 5822 5821 5820 5819 5818 5817 5816 5813 5811 5808 5807 5805 5801 5803 5801 5797 5793 5789 5786
5779 5780 5782 5785 5787 5789 5791 5793 5795 5796 5799 5802 5803 5804 5805 5808 5809 5810 5810 5811 5811 5812 5814 5814 5814 5815 5815 5815 5815 5814 5812 5810 5810 5808 5807 5805 5803 5800 5798 5796 5793 5791 5788 5789 5787 5785 5779
5764 5767 5768 5770 5772 5775 5778 5780 5783 5784 5786 5789 5792 5794 5795 5796 5798 5800 5801 5802 5803 5804 5805 5803 5805 5805 5806 5807 5808 5806 5804 5802 5800 5799 5797 5795 5793 5790 5790 5787 5785 5781 5783 5779 5777 5774 5771
5747 5751 5754 5756 5758 5761 5763 5766 5769 5771 5774 5776 5778 5781 5783 5785 5787 5789 5789 5792 5793 5795 5794 5794 5795 5795 5796 5796 5795 5794 5793 5793 5793 5790 5788 5785 5782 5780 5778 5779 5774 5775 5774 5772 5769 5767 5764
5730 5732 5735 5738 5741 5745 5748 5751 5754 5756 5759 5762 5765 5767 5771 5775 5775 5777 5778 5780 5781 5783 5785 5785 5785 5787 5787 5785 5784 5783 5782 5781 5780 5779 5776 5774 5774 5772 5771 5770 5766 5768 5766 5763 5761 5761 5758
5712 5714 5717 5720 5722 5726 5730 5734 5737 5741 5744 5747 5750 5753 5757 5762 5764 5764 5766 5768 5770 5771 5772 5773 5775 5776 5775 5774 5773 5773 5773 5773 5772 5768 5766 5765 5763 5762 5759 5760 5759 5758 5757 5755 5752 5754 5749
5692 5694 5697 5700 5704 5707 5712 5716 5720 5725 5729 5731 5734 5739 5743 5748 5753 5751 5754 5756 5758 5760 5761 5762 5762 5763 5764 5763 5763 5763 5762 5761 5762 5761 5758 5757 5754 5754 5753 5752 5749 5750 5750 5745 5745 5746 5743
5672 5674 5677 5680 5683 5687 5691 5697 5702 5707 5711 5715 5718 5723 5728 5734 5739 5738 5741 5744 5746 5748 5750 5751 5751 5751 5751 5753 5753 5752 5752 5751 5751 5751 5750 5747 5747 5746 5744 5743 5744 5744 5741 5740 5741 5743 5738
5654 5656 5657 5659 5662 5665 5670 5676 5682 5688 5693 5698 5701 5707 5713 5720 5726 5724 5726 5731 5734 5735 5738 5739 5740 5742 5743 5743 5742 5742 5742 5741 5740 5741 5739 5740 5739 5739 5739 5738 5738 5737 5737 5736 5735 5734 5733
5638 5639 5639 5640 5642 5645 5648 5654 5661 5668 5674 5680 5684 5691 5698 5706 5712 5711 5714 5718 5721 5722 5726 5729 5732 5732 5732 5732 5732 5732 5732 5732 5732 5733 5731 5732 5732 5732 5733 5732 5731 5731 5730 5730 5729 5727 5723